User: anonymous   Login
Location: Unspecified
(0.0000°N, 0.0000°E)
Time: 12:42:22
(UTC+00:00)
Language:

AALTO 1 - Orbit

View from above orbital plane
View from above orbital plane
View from above satellite
View from above satellite

Ground track
Ground track

The orbit data is extracted from the following two-line orbital elements,

1 42775U 17036L   18347.71387496 +.00000632 +00000-0 +31495-4 0  9997
2 42775 097.3777 043.6338 0014981 150.4236 209.7850 15.21032449081784
Epoch (UTC): 13 December 2018 17:07:58
Eccentricity: 0.0014981
inclination: 97.3777°
perigee height: 492 km
apogee height: 513 km
right ascension of ascending node: 43.6338°
argument of perigee: 150.4236°
revolutions per day: 15.21032449
mean anomaly at epoch: 209.7850°
orbit number at epoch: 8178

The dashed part of the orbit path shows where the satellite is in the earth's shadow,  

DLR